Find Starlink 32223

NORAD ID: 60373 Int'l Des: 2024-138 Owner: SPXS Country: US Constellation: starlink operational
LEOCIRCULAR

Current View

Loading 3D Globe...

About Starlink 32223

Starlink 32223 (NORAD 60373) is a starlink constellation satellite (v2 mini) launched Aug 4, 2024 by SPXS of US. It operates in LEO, CIRCULAR orbit with a mass of 730.00 kg.

About Starlink 32223

Description loading...

Upcoming Passes

Passes for default location (London). Set your location on the main map for personalized predictions.

Altitude History

Loading altitude history...

Two-Line Element Set

1 60373U 24138U 26176.14869147 .00000229 00000-0 19154-4 0 9996
2 60373 53.1590 170.2096 0001183 62.8966 297.2156 15.31708079106986
Epoch: Jun 25, 2026 • Age: 8 hours

Current Status

Altitude 473.8 km
Velocity 7.63 km/s
Sub-Earth Point 41.33°N, 121.37°E
Launch Date Aug 4, 2024
Age 1.8 years
Type internet

Technical Details

Classification Payload
Mass 730.00 kg
Dry Mass 700.00 kg
Total Mass 730.00 kg
Length 0.30 m
Diameter 4.10 m
Span 29.00 m
Shape Box + pan
Manufacturer SPXS
Bus Type Starlink V2M
Phase Status In Orbit
Owner/State SPXS/US

Most Searched